Lincoln, NE

11:51 PM CDT on September 19, 2017 (GMT -0500)
Lincoln Municipal

Weather History for KLNK - June, 2012

Change the Weather History Date:

Tuesday, June 12, 2012

  Actual Average Record
Temperature  
Mean Temperature 65 °F 72 °F  
Max Temperature 81 °F 83 °F 101 °F (1987)
Min Temperature 49 °F 60 °F 43 °F (1974)
Degree Days  
Heating Degree Days 0 1  
Month to date heating degree days 11 13  
Since 1 June heating degree days 11 13  
Since 1 July heating degree days 5094 6053  
Cooling Degree Days 0 7  
Month to date cooling degree days 85 69  
Year to date cooling degree days 276 148  
Since 1 June cooling degree days 85 69  
Growing Degree Days 14 (Base 50)    
Moisture  
Dew Point 46 °F    
Average Humidity 57    
Maximum Humidity 86    
Minimum Humidity 28    
Precipitation  
Precipitation T in 0.15 in 3.72 in (2017)
Month to date precipitation 0.02 1.74  
Year to date precipitation 9.66 12.08  
Snow  
Snow 0.00 in 0.00 in - ()
Month to date snowfall 0.0 0.0  
Since 1 July snowfall 18.8 25.9  
Snow Depth 0.00 in    
Sea Level Pressure  
Sea Level Pressure 30.15 in    
Wind  
Wind Speed 7 mph (NE)    
Max Wind Speed 18 mph    
Max Gust Speed 22 mph    
Visibility 10 miles    
Events      
T = Trace of Precipitation, MM = Missing Value Source: NWS Daily Summary

Daily Weather History Graph

Daily Weather History Graph

Search for Another Location

Airport or City:

Trip Planner

Search our weather history database for the weather conditions in past years. The results will help you decide how hot, cold, wet, or windy it might be!

Date:

Astronomy

Jun. 12, 2012 Rise Set
Actual Time 5:54 AM CDT 8:59 PM CDT
Civil Twilight 5:21 AM CDT 9:32 PM CDT
Nautical Twilight 4:38 AM CDT 10:15 PM CDT
Astronomical Twilight 3:48 AM CDT 11:05 PM CDT
Moon 1:43 AM CDT (6/12) 2:47 PM CDT (6/12)
Length of Visible Light 16h 11m
Length of Day
15h 04m
Last Quarter, 38% of the Moon is Illuminated
Jun 12
Last Quarter
Jun 19
New
Jun 26
First Quarter
Jul 3
Full
Jul 10
Last Quarter

Hourly Weather History & Observations

Time (CDT) Temp. Dew Point Humidity Pressure Visibility Wind Dir Wind Speed Gust Speed Precip Events Conditions
12:54 AM 55.9 °F 48.9 °F 77% 30.10 in 10.0 mi NNW 4.6 mph - N/A   Clear
1:54 AM 53.1 °F 48.9 °F 86% 30.11 in 10.0 mi North 5.8 mph - N/A   Clear
2:54 AM 55.0 °F 48.9 °F 80% 30.12 in 10.0 mi Calm Calm - N/A   Clear
3:54 AM 51.1 °F 46.9 °F 86% 30.14 in 10.0 mi North 4.6 mph - N/A   Clear
4:54 AM 50.0 °F 46.9 °F 89% 30.15 in 10.0 mi Calm Calm - N/A   Clear
5:54 AM 50.0 °F 46.9 °F 89% 30.16 in 10.0 mi North 8.1 mph - N/A   Clear
6:54 AM 53.1 °F 46.9 °F 80% 30.18 in 10.0 mi North 3.5 mph - N/A   Clear
7:54 AM 61.0 °F 45.0 °F 56% 30.19 in 10.0 mi NNE 8.1 mph - N/A   Clear
8:54 AM 66.9 °F 42.1 °F 40% 30.19 in 10.0 mi NE 11.5 mph - N/A   Clear
9:54 AM 69.1 °F 43.0 °F 39% 30.22 in 10.0 mi NE 10.4 mph - N/A   Clear
10:54 AM 71.1 °F 43.0 °F 36% 30.23 in 10.0 mi NNE 5.8 mph - N/A   Clear
11:54 AM 73.9 °F 43.0 °F 33% 30.24 in 10.0 mi Variable 3.5 mph - N/A   Clear
12:54 PM 75.0 °F 42.1 °F 31% 30.23 in 10.0 mi Variable 3.5 mph - N/A   Clear
1:54 PM 78.8 °F 42.8 °F 28% 30.21 in 10.0 mi NE 9.2 mph - N/A   Clear
2:54 PM 80.1 °F 45.0 °F 29% 30.16 in 10.0 mi East 6.9 mph - N/A   Clear
3:54 PM 80.1 °F 45.0 °F 29% 30.14 in 10.0 mi NNE 4.6 mph - N/A   Clear
4:54 PM 81.0 °F 46.0 °F 29% 30.12 in 10.0 mi Variable 6.9 mph - N/A   Clear
5:54 PM 78.1 °F 46.9 °F 33% 30.09 in 10.0 mi ENE 12.7 mph 20.7 mph 0.00 in   Clear
6:54 PM 77.0 °F 48.0 °F 36% 30.08 in 10.0 mi ESE 9.2 mph - N/A   Clear
7:54 PM 73.9 °F 48.0 °F 40% 30.08 in 10.0 mi ESE 10.4 mph - N/A   Clear
8:54 PM 72.0 °F 48.0 °F 43% 30.07 in 10.0 mi ESE 11.5 mph - N/A   Clear
9:54 PM 71.1 °F 50.0 °F 47% 30.08 in 10.0 mi ESE 9.2 mph - N/A   Clear
10:54 PM 69.1 °F 50.0 °F 51% 30.12 in 10.0 mi SE 8.1 mph - N/A   Clear
11:54 PM 68.0 °F 48.9 °F 50% 30.10 in 10.0 mi ESE 9.2 mph - N/A   Clear